Flag for Thailand Weather past 2 weeks in Phuket, Thailand

Now
88 °F

Broken clouds.


Feels Like: 96 °F
Forecast: 78 / 89 °F
Wind: 8 mph from Northwest

Location: Phuket Airport

Current Time: Apr 28, 2015 at 2:52:09 PM

Latest Report: Apr 28, 2015 at 2:00 PM


Visibility: N/A

Pressure: 29.83 "Hg

Humidity: 62%

Dew point: 73 °F

Location of PhuketLocation

Historic Weather in Phuket — Graph

°F

Phuket temperature yesterday

Maximum temperature yesterday: 93 °F (at 1:30 PM)
Minimum temperature yesterday: 77 °F (at 12:00 AM)
Average temperature yesterday: 84 °F

Past Weeks' High & Low Weather Summary

 TemperatureHumidityPressure
High93 °F (Apr 13, 2:00 PM)94% (Apr 13, 4:30 PM)29.92 "Hg (Apr 13, 4:30 PM)
Low73 °F (Apr 13, 4:30 PM)47% (Apr 16, 4:30 PM)29.74 "Hg (Apr 17, 4:00 PM)
Average84 °F73%29.85 "Hg
* Reported Apr 13 2:00 PM — Apr 28 2:00 PM, Phuket, Weather by CustomWeather, © 2015

Note: Actual official high and low records may vary slightly from our data, if they occured in-between our weather recording intervals... More about our weather records

Advertising

Phuket weather history for previous 24 hours

 ConditionsComfort  
Time TempWeatherWind HumidityBarometerVisibility
2:00 PM
Tue, Apr 28
88 °FBroken clouds.8 mph62%29.83 "HgN/A
1:00 PM91 °FPartly sunny.12 mph52%29.83 "HgN/A
12:30 PM91 °FPartly sunny.9 mph52%29.86 "HgN/A
12:00 PM90 °FPartly sunny.6 mph55%29.86 "HgN/A
11:30 AM88 °FPartly sunny.8 mph59%29.89 "HgN/A
10:30 AM86 °FPartly sunny.8 mph66%29.89 "HgN/A
10:00 AM88 °FScattered clouds.12 mph66%29.89 "HgN/A
9:30 AM86 °FScattered clouds.9 mph70%29.89 "HgN/A
9:00 AM86 °FScattered clouds.10 mph70%29.89 "HgN/A
8:30 AM86 °FScattered clouds.12 mph70%29.89 "HgN/A
8:00 AM84 °FScattered clouds.3 mph74%29.89 "HgN/A
7:30 AM81 °FScattered clouds.3 mph84%29.89 "HgN/A
7:00 AM79 °FPartly sunny.2 mph89%29.89 "HgN/A
6:30 AM77 °FPartly sunny.2 mph94%29.86 "Hg5 mi
6:00 AM77 °FPartly cloudy.No wind89%29.86 "Hg5 mi
5:30 AM77 °FPassing clouds.No wind89%29.86 "Hg5 mi
5:00 AM77 °FPartly cloudy.2 mph89%29.83 "Hg5 mi
4:30 AM77 °FPartly cloudy.No wind89%29.83 "Hg5 mi
4:00 AM77 °FPartly cloudy.No wind89%29.83 "Hg5 mi
3:30 AM77 °FPartly cloudy.1 mph89%29.83 "Hg5 mi
3:00 AM77 °FPartly cloudy.1 mph89%29.83 "Hg5 mi
2:30 AM77 °FPartly cloudy.2 mph89%29.83 "Hg5 mi
2:00 AM77 °FPartly cloudy.No wind94%29.83 "Hg5 mi
1:30 AM79 °FPartly cloudy.1 mph84%29.86 "Hg5 mi
1:00 AM79 °FPartly cloudy.2 mph89%29.86 "Hg5 mi
12:30 AM79 °FPartly cloudy.2 mph89%29.89 "Hg6 mi
12:00 AM79 °FPartly cloudy.2 mph89%29.89 "Hg6 mi
11:30 PM
Mon, Apr 27
81 °FPartly cloudy.No wind79%29.89 "Hg6 mi
11:00 PM81 °FPartly cloudy.2 mph79%29.89 "Hg6 mi
10:30 PM82 °FPartly cloudy.2 mph79%29.89 "Hg5 mi
10:00 PM81 °FPartly cloudy.3 mph84%29.89 "Hg5 mi
9:30 PM82 °FPartly cloudy.2 mph74%29.89 "Hg6 mi
9:00 PM82 °FPartly cloudy.5 mph74%29.89 "Hg6 mi
8:30 PM84 °FPartly cloudy.3 mph74%29.86 "Hg6 mi
8:00 PM84 °FPartly cloudy.2 mph70%29.83 "Hg6 mi
7:30 PM86 °FPartly cloudy.5 mph66%29.83 "Hg6 mi
7:00 PM86 °FPartly cloudy.6 mph66%29.83 "HgN/A
6:30 PM86 °FBroken clouds.8 mph70%29.80 "Hg6 mi
6:00 PM86 °FBroken clouds.2 mph70%29.80 "HgN/A
5:30 PM88 °FThunderstorms. Partly sunny.2 mph66%29.80 "Hg6 mi
5:00 PM88 °FPartly sunny.5 mph66%29.80 "HgN/A
4:30 PM90 °FPartly sunny.13 mph63%29.80 "HgN/A
4:00 PM91 °FPartly sunny.7 mph52%29.77 "HgN/A
3:30 PM91 °FPartly sunny.8 mph52%29.80 "HgN/A
3:00 PM91 °FPartly sunny.3 mph49%29.80 "HgN/A
2:30 PM93 °FPartly sunny.6 mph47%29.80 "HgN/A
2:00 PM93 °FPartly sunny.10 mph47%29.83 "HgN/A
Weather by CustomWeather, © 2015

See weather overviewHow to use our weather pages